sat.trackr.live / text

‹ back to catalog

STARLINK-4498

NORAD 53434 · 2022-097AY

PAYLOAD ACTIVE UNKNOWN

§ Identity

Operator
Country
US
Launch date
2022-08-10
Launch site
AFETR
Launch vehicle
Mass (kg)
RCS (m²)

Purposes: comms

External: N2YO · Heavens-Above · Gunter

§ Orbital elements

Epoch: 2026-05-25T06:00:02.000160Z

Period
91.44 min
Inclination
53.2171°
Eccentricity
0.0000862
Mean motion
15.74733893 rev/d
Perigee alt
344.8 km
Apogee alt
346.0 km
Semi-major
6,723.5 km
B*
4.1646e-3
RAAN
102.6717°
Arg perigee
121.4550°
Mean anomaly
225.6567°
Rev number
586

§ Raw data

STARLINK-44981 53434U 22097AY  26145.25002315  .00676620  00000+0  41646-2 0  99942 53434  53.2171 102.6717 0000862 121.4550 225.6567 15.74733893  5860

JSON: /api/v1/satellites/53434 · /tle

For live sub-satellite position, see the globe view (requires WebGL).

§ Visibility from observer

Set your observer location to see the next 7 days of passes ≥ 10°. The values pass through the URL so the page stays shareable.

No JS? Fill the form by hand. The geolocation button needs JavaScript.